TimeCST,TemperatureF,Dew PointF,Humidity,Sea Level PressureIn,VisibilityMPH,Wind Direction,Wind SpeedMPH,Gust SpeedMPH,PrecipitationIn,Events,Conditions,WindDirDegrees,DateUTC
12:15 AM,48.2,42.8,82,30.30,10.0,SE,5.8,-,N/A,,Scattered Clouds,140,2013-01-09 06:15:00
12:35 AM,48.2,44.6,87,30.29,10.0,SSE,6.9,-,N/A,,Scattered Clouds,150,2013-01-09 06:35:00
12:55 AM,48.2,44.6,87,30.30,10.0,SSE,4.6,-,N/A,,Mostly Cloudy,150,2013-01-09 06:55:00
1:15 AM,48.2,44.6,87,30.30,10.0,SE,4.6,-,N/A,,Overcast,140,2013-01-09 07:15:00
1:35 AM,48.2,46.4,93,30.30,10.0,SE,3.5,-,N/A,,Partly Cloudy,130,2013-01-09 07:35:00
1:55 AM,48.2,46.4,93,30.30,10.0,Calm,Calm,-,N/A,,Mostly Cloudy,0,2013-01-09 07:55:00
2:15 AM,48.2,46.4,93,30.30,10.0,ESE,3.5,-,N/A,,Overcast,120,2013-01-09 08:15:00
2:35 AM,50.0,46.4,87,30.30,10.0,Calm,Calm,-,N/A,,Mostly Cloudy,0,2013-01-09 08:35:00
2:55 AM,50.0,46.4,87,30.31,10.0,SE,5.8,-,N/A,,Overcast,130,2013-01-09 08:55:00
3:15 AM,50.0,46.4,87,30.30,10.0,SE,6.9,-,N/A,,Mostly Cloudy,130,2013-01-09 09:15:00
3:35 AM,51.8,46.4,82,30.30,10.0,SE,5.8,-,N/A,,Partly Cloudy,140,2013-01-09 09:35:00
3:55 AM,51.8,48.2,88,30.30,10.0,SSE,5.8,-,N/A,,Mostly Cloudy,150,2013-01-09 09:55:00
4:15 AM,51.8,48.2,88,30.31,10.0,SSE,8.1,-,N/A,,Overcast,150,2013-01-09 10:15:00
4:35 AM,51.8,48.2,88,30.31,9.0,SSE,5.8,-,N/A,,Overcast,150,2013-01-09 10:35:00
4:55 AM,51.8,48.2,88,30.31,7.0,SSE,5.8,-,N/A,,Mostly Cloudy,160,2013-01-09 10:55:00
5:15 AM,51.8,48.2,88,30.31,6.0,SSE,5.8,-,N/A,,Overcast,150,2013-01-09 11:15:00
5:35 AM,51.8,48.2,88,30.32,5.0,SSE,5.8,-,N/A,,Mostly Cloudy,150,2013-01-09 11:35:00
5:55 AM,51.8,50.0,94,30.32,5.0,SE,6.9,-,N/A,,Overcast,130,2013-01-09 11:55:00
6:15 AM,51.8,50.0,94,30.33,6.0,SE,5.8,-,N/A,,Overcast,140,2013-01-09 12:15:00
6:35 AM,51.8,50.0,94,30.33,6.0,SSE,4.6,-,N/A,,Overcast,150,2013-01-09 12:35:00
6:55 AM,51.8,50.0,94,30.34,5.0,SE,3.5,-,N/A,,Mostly Cloudy,140,2013-01-09 12:55:00
7:15 AM,51.8,50.0,94,30.35,5.0,SE,3.5,-,N/A,,Overcast,140,2013-01-09 13:15:00
7:35 AM,51.8,50.0,94,30.36,5.0,SE,3.5,-,N/A,,Mostly Cloudy,140,2013-01-09 13:35:00
7:55 AM,51.8,51.8,100,30.37,6.0,SSE,5.8,-,N/A,,Mostly Cloudy,150,2013-01-09 13:55:00
8:15 AM,51.8,51.8,100,30.38,4.0,SSE,4.6,-,N/A,,Overcast,160,2013-01-09 14:15:00
8:35 AM,51.8,51.8,100,30.39,3.0,SSE,4.6,-,N/A,,Overcast,150,2013-01-09 14:35:00
8:55 AM,51.8,51.8,100,30.39,4.0,SE,5.8,-,N/A,,Overcast,140,2013-01-09 14:55:00
9:15 AM,51.8,51.8,100,30.40,4.0,SSE,4.6,-,N/A,,Overcast,150,2013-01-09 15:15:00
9:35 AM,53.6,53.6,100,30.40,3.0,SE,3.5,-,N/A,,Overcast,140,2013-01-09 15:35:00
9:55 AM,53.6,53.6,100,30.40,3.0,SE,4.6,-,N/A,,Overcast,140,2013-01-09 15:55:00
10:15 AM,53.6,53.6,100,30.40,3.0,SE,3.5,-,N/A,,Overcast,130,2013-01-09 16:15:00
10:35 AM,53.6,53.6,100,30.39,4.0,Calm,Calm,-,N/A,,Overcast,0,2013-01-09 16:35:00
10:55 AM,53.6,53.6,100,30.39,5.0,SSE,5.8,-,N/A,,Overcast,150,2013-01-09 16:55:00
11:15 AM,55.4,55.4,100,30.37,6.0,SE,5.8,-,N/A,,Mostly Cloudy,130,2013-01-09 17:15:00
11:35 AM,55.4,55.4,100,30.36,8.0,SE,4.6,-,N/A,,Scattered Clouds,140,2013-01-09 17:35:00
11:55 AM,57.2,55.4,94,30.36,10.0,Calm,Calm,-,N/A,,Mostly Cloudy,0,2013-01-09 17:55:00
12:15 PM,57.2,55.4,94,30.35,10.0,Calm,Calm,-,N/A,,Overcast,0,2013-01-09 18:15:00
12:35 PM,57.2,55.4,94,30.35,10.0,Calm,Calm,-,N/A,,Overcast,0,2013-01-09 18:35:00
12:55 PM,57.2,55.4,94,30.35,10.0,Calm,Calm,-,N/A,,Overcast,0,2013-01-09 18:55:00
1:15 PM,57.2,55.4,94,30.36,9.0,Calm,Calm,-,N/A,,Overcast,0,2013-01-09 19:15:00
1:35 PM,57.2,55.4,94,30.36,10.0,North,3.5,-,N/A,,Overcast,360,2013-01-09 19:35:00
1:55 PM,57.2,55.4,94,30.36,10.0,Calm,Calm,-,N/A,,Overcast,0,2013-01-09 19:55:00
2:15 PM,57.2,55.4,94,30.37,1.5,NNE,3.5,-,N/A,,Overcast,30,2013-01-09 20:15:00
2:35 PM,57.2,55.4,94,30.37,3.0,East,3.5,-,N/A,,Overcast,90,2013-01-09 20:35:00
2:55 PM,57.2,55.4,94,30.37,2.0,ESE,4.6,-,N/A,,Overcast,110,2013-01-09 20:55:00
3:15 PM,57.2,57.2,100,30.36,5.0,ESE,5.8,-,N/A,,Overcast,110,2013-01-09 21:15:00
3:35 PM,57.2,57.2,100,30.36,5.0,ESE,4.6,-,N/A,,Overcast,120,2013-01-09 21:35:00
3:55 PM,57.2,57.2,100,30.35,7.0,East,3.5,-,N/A,,Overcast,90,2013-01-09 21:55:00
4:15 PM,57.2,55.4,94,30.35,10.0,ENE,4.6,-,N/A,,Overcast,70,2013-01-09 22:15:00
4:35 PM,55.4,55.4,100,30.35,10.0,ENE,3.5,-,N/A,,Overcast,70,2013-01-09 22:35:00
4:55 PM,55.4,55.4,100,30.35,10.0,Calm,Calm,-,N/A,,Overcast,0,2013-01-09 22:55:00
5:15 PM,55.4,55.4,100,30.36,10.0,Calm,Calm,-,N/A,,Overcast,0,2013-01-09 23:15:00
5:35 PM,53.6,53.6,100,30.36,4.0,North,3.5,-,N/A,,Mostly Cloudy,10,2013-01-09 23:35:00
5:55 PM,55.4,55.4,100,30.37,7.0,North,3.5,-,N/A,,Partly Cloudy,360,2013-01-09 23:55:00
6:15 PM,55.4,53.6,94,30.38,5.0,North,5.8,-,N/A,,Mostly Cloudy,10,2013-01-10 00:15:00
6:35 PM,55.4,55.4,100,30.39,6.0,NNE,4.6,-,N/A,,Overcast,20,2013-01-10 00:35:00
6:55 PM,55.4,53.6,94,30.40,9.0,NE,3.5,-,N/A,,Overcast,40,2013-01-10 00:55:00
7:15 PM,55.4,53.6,94,30.40,8.0,NE,5.8,-,N/A,,Overcast,40,2013-01-10 01:15:00
7:35 PM,55.4,53.6,94,30.41,6.0,ENE,3.5,-,N/A,,Overcast,60,2013-01-10 01:35:00
7:55 PM,55.4,53.6,94,30.41,5.0,ENE,4.6,-,N/A,,Overcast,60,2013-01-10 01:55:00
8:15 PM,53.6,53.6,100,30.40,5.0,ENE,5.8,-,N/A,,Mostly Cloudy,60,2013-01-10 02:15:00
8:35 PM,53.6,53.6,100,30.41,5.0,East,3.5,-,N/A,,Overcast,80,2013-01-10 02:35:00
8:55 PM,55.4,53.6,94,30.41,6.0,ENE,3.5,-,N/A,,Overcast,70,2013-01-10 02:55:00
9:15 PM,53.6,53.6,100,30.41,6.0,East,3.5,-,N/A,,Overcast,80,2013-01-10 03:15:00
9:35 PM,53.6,53.6,100,30.41,6.0,ENE,3.5,-,N/A,,Overcast,70,2013-01-10 03:35:00
9:55 PM,53.6,53.6,100,30.39,6.0,ENE,4.6,-,N/A,,Mostly Cloudy,70,2013-01-10 03:55:00
10:15 PM,53.6,53.6,100,30.38,8.0,East,5.8,-,N/A,,Overcast,80,2013-01-10 04:15:00
10:35 PM,53.6,53.6,100,30.39,8.0,East,4.6,-,N/A,,Overcast,90,2013-01-10 04:35:00
10:55 PM,53.6,53.6,100,30.39,7.0,East,3.5,-,N/A,,Overcast,80,2013-01-10 04:55:00
11:15 PM,53.6,53.6,100,30.39,8.0,ENE,4.6,-,N/A,,Overcast,70,2013-01-10 05:15:00
11:35 PM,53.6,53.6,100,30.40,8.0,Calm,Calm,-,N/A,,Overcast,0,2013-01-10 05:35:00
11:55 PM,53.6,53.6,100,30.39,8.0,Calm,Calm,-,N/A,,Overcast,0,2013-01-10 05:55:00